Regional Weather Roundup
Issued by NWS Cleveland, OH

Home | Current Version | Previous Version | Text Only | Print | Product List | Glossary Off
Versions: 1 2 3 4 5 6 7 8 9 10 11 12 13 14 15 16 17 18 19 20 21 22 23 24 25 26 27 28 29 30 31 32 33 34 35 36 37 38 39 40 41 42 43 44 45 46 47 48 49 50

000
ASUS41 KCLE 052102
RWRCLE
OHIO REGIONAL WEATHER ROUNDUP
NATIONAL WEATHER SERVICE CLEVELAND, OH
500 PM EDT SUN JUL 05 2015

NOTE: "FAIR" INDICATES FEW OR NO CLOUDS BELOW 12,000 FEET WITH NO
SIGNIFICANT WEATHER AND/OR OBSTRUCTIONS TO VISIBILITY.

OHZ001>008-015>018-024>027-034-035-043-044-052200-
   NORTHWEST OHIO

CITY           SKY/WX    TMP DP  RH WIND       PRES   REMARKS
DEFIANCE       PTSUNNY   82  58  43 SE6       30.08F
FINDLAY        MOSUNNY   81  51  35 E7        30.08F
TOLEDO EXPRESS PTSUNNY   82  57  42 E8        30.08F
TOLEDO EXEC    PTSUNNY   77  56  48 NE8       30.10F
LIMA           PTSUNNY   80  57  45 E7        30.09F
$$

OHZ009>014-019>023-028>033-038-089-052200-
   NORTHEAST OHIO

CITY           SKY/WX    TMP DP  RH WIND       PRES   REMARKS
CLE-HOPKINS    PTSUNNY   77  60  55 NE10      30.12S
CLE-LAKEFRONT  PTSUNNY   74  63  68 NE12      30.10S
CUY CO. ARPT   NOT AVBL
LORAIN-ELYRIA  PTSUNNY   80  55  42 VRB5      30.11S
ASHTABULA      PTSUNNY   77  60  55 N6        30.13F
AKRON-CANTON   PTSUNNY   79  57  46 E8        30.11F
WOOSTER        CLOUDY    78  59  51 E3        30.12S
MANSFIELD      CLOUDY    76  57  51 E7        30.12S
YOUNGSTOWN     CLOUDY    79  53  40 SE6       30.12F
$$

OHZ042-051>053-060>062-070>072-077>081-052200-
  SOUTHWEST OHIO

CITY           SKY/WX    TMP DP  RH WIND       PRES   REMARKS
CINC-COVINGTON CLOUDY    78  57  48 CALM      30.09F
CINC-LUNKEN    CLOUDY    78  61  55 CALM      30.08F
HAMILTON       CLOUDY    79  62  56 CALM      30.09F
DAYTON         CLOUDY    78  62  57 NW6       30.10F
WRIGHT-PAT AFB CLOUDY    78  59  53 SE5       30.09S
DAYTON GENERAL CLOUDY    77  60  55 E5        30.09S
WILMINGTON     CLOUDY    75  62  64 NE5       30.09S
$$

OHZ036-037-039>041-045>050-054>059-063>069-073>076-082>088-052200-
  CENTRAL AND SOUTHEAST OHIO

CITY           SKY/WX    TMP DP  RH WIND       PRES   REMARKS
COLUMBUS       CLOUDY    77  64  64 NE5       30.08S
OSU AIRPORT    CLOUDY    77  59  53 E5        30.09S
BOLTON FIELD   SUNNY     77  63  61 CALM      30.09S
RICKENBACK AFB NOT AVBL
NEWARK         CLOUDY    79  62  56 E3        30.08S
MARION         CLOUDY    77  59  53 N6        30.10F
LANCASTER      CLOUDY    77  68  73 NE3       30.08S
ZANESVILLE     NOT AVBL
NEW PHILLY     PTSUNNY   79  62  56 E6        30.10S
$$


USA.gov is the U.S. government's official web portal to all federal, state and local government web resources and services.